This is the latest recevied weather packets stored in our database for station/object DO1SC. If no packets are shown the sender has not sent any weather packets the latest 10 day(s).
| Time | Temp. | Humidity | Pressure | Rain* | Wind** | Luminosity | Snow |
|---|---|---|---|---|---|---|---|
| 1777530319 | 3.89° C | 46% | 1031.7 hPa | - | - | 95 W/m² | - |
| 1777529731 | 3.89° C | 47% | 1031.7 hPa | - | - | 60 W/m² | - |
| 1777529125 | 3.33° C | 48% | 1031.6 hPa | - | - | 32 W/m² | - |
| 1777528534 | 3.33° C | 49% | 1031.6 hPa | - | - | 31 W/m² | - |
| 1777527926 | 2.78° C | 49% | 1031.5 hPa | - | - | 30 W/m² | - |
| 1777527321 | 2.22° C | 50% | 1031.4 hPa | - | - | 32 W/m² | - |
| 1777526728 | 2.22° C | 51% | 1031.2 hPa | - | - | 33 W/m² | - |
| 1777526119 | 2.22° C | 52% | 1031.1 hPa | - | - | 25 W/m² | - |
| 1777525534 | 1.67° C | 54% | 1031.1 hPa | - | - | 24 W/m² | - |
| 1777524923 | 1.11° C | 54% | 1031.1 hPa | - | - | 21 W/m² | - |
| 1777524334 | 0.56° C | 55% | 1031 hPa | - | - | 19 W/m² | - |
| 1777523726 | 0.56° C | 54% | 1030.9 hPa | - | - | 16 W/m² | - |
| 1777523117 | 0° C | 55% | 1030.8 hPa | - | - | 13 W/m² | - |
| 1777522531 | 0° C | 55% | 1030.7 hPa | - | - | 9 W/m² | - |
| 1777521920 | 0.56° C | 54% | 1030.6 hPa | - | - | 6 W/m² | - |
| 1777521332 | 0.56° C | 53% | 1030.6 hPa | - | - | 3 W/m² | - |
| 1777520723 | 0.56° C | 53% | 1030.7 hPa | - | - | 1 W/m² | - |
| 1777520138 | 0.56° C | 54% | 1030.7 hPa | - | - | 0 W/m² | - |
| 1777519526 | 0.56° C | 53% | 1030.7 hPa | - | - | 0 W/m² | - |
| 1777518921 | 0.56° C | 53% | 1030.6 hPa | - | - | 0 W/m² | - |
| 1777518330 | 0.56° C | 53% | 1030.5 hPa | - | - | 0 W/m² | - |
| 1777517725 | 1.11° C | 52% | 1030.4 hPa | - | - | 0 W/m² | - |
| 1777517133 | 1.11° C | 52% | 1030.4 hPa | - | - | 0 W/m² | - |
| 1777516525 | 0.56° C | 53% | 1030.4 hPa | - | - | 0 W/m² | - |
| 1777515935 | 0.56° C | 55% | 1030.4 hPa | - | - | 0 W/m² | - |
* Rain since midnight (hover to see other rain measurements)
** Current wind speed in m/s (hover to see current wind gust speed)